ARIANE 42P DEB, 44510

Orbit data source: Space-Track

ARIANE 42P DEB, 44510 is space debris in LEO originally from a launch on Mon, 10 Aug 1992 UTC launched from the French Guiana (FRGUI). Debris objects in space refer to the collection of defunct objects orbiting the Earth. Examples of debris include non-operational satellites, rocket bodies, and fragments generated from explosions, collisions, or faulty payload assembly.

Loading next visibility...
Identifier
44510, 1992-052H
Orbit
LEO
Country
Flag of FRFR
Related business
Manufacturer
ArianeGroup
Mission
Spacecraft
Bus & Motor
Unknown
Mass
Unknown
Launch date (UTC)
1992-08-10 (33 years ago)
Launch vehicle
Unknown
Launch site
French Guiana (FRGUI)
Object type
Payload
Rocket body
Debris
Shape & HBR
Unknown shape, 0.1 m
Radar Cross Section
Small (<0.1 m²)

Expand to show TLE details & history
Last TLE update: 14 hours ago

TLE from 14 hours ago
0 ARIANE 42P DEB
1 44510U 92052H   25302.70852079  .00001188  00000-0  53042-2 0  9996
2 44510  66.0570  57.5261 0074167  66.9663 293.9152 12.81635101290052
Epoch: 2025-10-29T17:00Z
TLE epoch observation values (Epoch: 2025-10-29T17:00:16.196Z)
Latitude
-0.00003°
Longitude
124.18083°
Altitude
1,313.978 km
Speed
7.211 km/s
True Right ascension
03h 50m 06s
True Declination
0° 00' 00"
Sunlit
Object was in full shadow at epoch
Visualization orbit readout
Latitude
Unknown
Longitude
Unknown
Altitude
Unknown
Speed
Unknown
Apparent Right ascension
Unknown
Apparent Declination
Unknown
Sunlit
N/A
Visualization observer readout
Local Sidereal Time
02:39:28
Azimuth
Unknown
Elevation
Unknown
Doppler factor
Unknown
Orbital elements
Apogee altitude
1,390.658 km
Perigee altitude
1,276.269 km
Semi-major axis
7,711.6 km
Eccentricity
0.00742
Inclination
66.057°
RAAN
57.5261°
Arg. of periapsis
66.9663°
True anomaly
293.13537°
Mean anomaly
293.9152°
Eccentric anomaly
293.52558°
Mean motion
3.20499 °/min
Orbital period
112.32 mins
BSTAR
0.0053042
Loading maneuver chart data...
Computing Atmospheric mass density...
Loading historical data...
Loading historical data...
Loading historical data...
Loading historical data...
Loading historical data...
Loading historical data...
Loading historical data...

Documentation

Showing up to 5 results
|